| time (UTC) | temp F | wind direction | speed knots | gust knots | rain 1hr in | rain 24hr in | rain mn in | humidity % | barometer mb |
| 20260507104543 | 51 | 226 | 0.0 | 1.7 | 0.00 | 0.00 | 0.00 | 80 | 1023.9 |
| 20260507103042 | 52 | 295 | 0.0 | 0.9 | 0.00 | 0.00 | 0.00 | 80 | 1024.0 |
| 20260507101540 | 52 | 221 | 0.0 | 0.9 | 0.00 | 0.00 | 0.00 | 80 | 1024.1 |
| 20260507100040 | 52 | 248 | 0.0 | 0.9 | 0.00 | 0.00 | 0.00 | 79 | 1024.2 |
| 20260507094537 | 52 | 273 | 0.0 | 0.9 | 0.00 | 0.00 | 0.00 | 80 | 1024.3 |
| 20260507093037 | 52 | 273 | 0.0 | 0.9 | 0.00 | 0.00 | 0.00 | 79 | 1024.4 |
| 20260507091535 | 52 | 238 | 0.9 | 2.6 | 0.00 | 0.00 | 0.00 | 79 | 1024.6 |
| 20260507090034 | 52 | 240 | 0.0 | 1.7 | 0.00 | 0.00 | 0.00 | 80 | 1024.6 |
| 20260507084534 | 52 | 224 | 0.0 | 2.6 | 0.00 | 0.00 | 0.00 | 80 | 1024.6 |
| 20260507083033 | 52 | 252 | 0.0 | 0.9 | 0.00 | 0.00 | 0.00 | 80 | 1024.5 |
| 20260507081542 | 52 | 233 | 0.0 | 1.7 | 0.00 | 0.00 | 0.00 | 81 | 1024.6 |
| 20260507080036 | 52 | 241 | 0.0 | 0.9 | 0.00 | 0.00 | 0.00 | 81 | 1024.6 |
| 20260507074533 | 52 | 226 | 0.0 | 1.7 | 0.00 | 0.00 | 0.00 | 81 | 1024.5 |
| 20260507073029 | 52 | 255 | 0.0 | 2.6 | 0.00 | 0.00 | 0.00 | 82 | 1024.5 |
| 20260507071532 | 52 | 229 | 0.0 | 1.7 | 0.00 | 0.00 | 0.00 | 82 | 1024.3 |
| 20260507070025 | 52 | 29 | 0.0 | 3.5 | 0.00 | 0.00 | 0.00 | 82 | 1024.3 |
| 20260507064525 | 52 | 17 | 0.9 | 7.0 | 0.00 | 0.00 | 0.00 | 82 | 1024.3 |
| 20260507063023 | 52 | 319 | 0.0 | 1.7 | 0.00 | 0.00 | 0.00 | 83 | 1024.3 |
| 20260507061530 | 52 | 26 | 0.9 | 6.1 | 0.00 | 0.00 | 0.00 | 84 | 1024.4 |
| 20260507060021 | 53 | 49 | 0.9 | 3.5 | 0.00 | 0.00 | 0.00 | 85 | 1024.4 |
| 20260507054521 | 53 | 44 | 0.0 | 3.5 | 0.00 | 0.00 | 0.00 | 86 | 1024.3 |
| 20260507053023 | 53 | 33 | 0.0 | 3.5 | 0.00 | 0.00 | 0.00 | 85 | 1024.3 |
| 20260507051518 | 53 | 27 | 0.0 | 6.1 | 0.00 | 0.00 | 0.00 | 85 | 1024.3 |
| 20260507050020 | 54 | 38 | 0.9 | 3.5 | 0.00 | 0.00 | 0.00 | 84 | 1024.3 |
| 20260507044516 | 54 | 62 | 0.9 | 3.5 | 0.00 | 0.00 | 0.00 | 83 | 1024.3 |
| 20260507043015 | 55 | 290 | 0.9 | 5.2 | 0.00 | 0.00 | 0.00 | 82 | 1024.2 |
| 20260507041514 | 55 | 352 | 0.9 | 3.5 | 0.00 | 0.00 | 0.00 | 82 | 1024.1 |
| 20260507040013 | 55 | 57 | 0.9 | 5.2 | 0.00 | 0.00 | 0.00 | 81 | 1023.9 |
| 20260507034514 | 56 | 28 | 0.9 | 3.5 | 0.00 | 0.00 | 0.00 | 81 | 1023.7 |
| 20260507033012 | 56 | 286 | 0.0 | 4.3 | 0.00 | 0.00 | 0.00 | 81 | 1023.5 |
| 20260507031511 | 56 | 34 | 1.7 | 4.3 | 0.00 | 0.00 | 0.00 | 81 | 1023.3 |
| 20260507030011 | 57 | 49 | 1.7 | 4.3 | 0.00 | 0.00 | 0.00 | 80 | 1023.1 |
| 20260507024511 | 57 | 303 | 0.9 | 4.3 | 0.00 | 0.00 | 0.00 | 80 | 1023.0 |
| 20260507023010 | 58 | 49 | 1.7 | 6.1 | 0.00 | 0.00 | 0.00 | 79 | 1022.9 |
| 20260507021509 | 58 | 41 | 1.7 | 7.0 | 0.00 | 0.00 | 0.00 | 78 | 1022.7 |
| 20260507020010 | 59 | 32 | 2.6 | 4.3 | 0.00 | 0.00 | 0.00 | 77 | 1022.8 |
| 20260507014508 | 60 | 57 | 1.7 | 7.0 | 0.00 | 0.00 | 0.00 | 76 | 1023.0 |
| 20260507013012 | 61 | 273 | 1.7 | 5.2 | 0.00 | 0.00 | 0.00 | 73 | 1023.0 |
| 20260507011507 | 63 | 47 | 0.9 | 5.2 | 0.00 | 0.00 | 0.00 | 71 | 1023.0 |
| 20260507010022 | 64 | 276 | 0.9 | 5.2 | 0.00 | 0.00 | 0.00 | 69 | 1023.0 |
| 20260507004506 | 66 | 232 | 2.6 | 7.0 | 0.00 | 0.00 | 0.00 | 66 | 1023.0 |
| 20260507003006 | 66 | 283 | 1.7 | 8.7 | 0.00 | 0.00 | 0.00 | 69 | 1022.9 |
| 20260507001505 | 65 | 58 | 2.6 | 8.7 | 0.00 | 0.00 | 0.00 | 70 | 1022.9 |
| 20260507000004 | 66 | 278 | 1.7 | 5.2 | 0.00 | 0.00 | 0.00 | 71 | 1022.9 |
| 20260506234507 | 66 | 202 | 0.0 | 4.3 | 0.00 | 0.00 | 0.00 | 70 | 1022.9 |
| 20260506233004 | 67 | 32 | 0.9 | 3.5 | 0.00 | 0.00 | 0.00 | 67 | 1022.9 |
| 20260506231501 | 69 | 238 | 0.0 | 2.6 | 0.00 | 0.00 | 0.00 | 66 | 1022.9 |
| 20260506230100 | 68 | 258 | 0.0 | 0.9 | 0.00 | 0.00 | 0.00 | 67 | 1023.0 |
| 20260506224613 | 67 | 298 | 0.0 | 1.7 | 0.00 | 0.00 | 0.00 | 67 | 1023.3 |
| 20260506223102 | 67 | 33 | 0.0 | 0.9 | 0.00 | 0.00 | 0.00 | 69 | 1023.4 |
| 20260506221558 | 67 | 271 | 0.0 | 1.7 | 0.00 | 0.00 | 0.00 | 70 | 1023.4 |
| 20260506220109 | 68 | 256 | 0.9 | 2.6 | 0.00 | 0.00 | 0.00 | 67 | 1023.5 |
| 20260506214554 | 67 | 181 | 0.0 | 2.6 | 0.00 | 0.00 | 0.00 | 70 | 1023.5 |
| 20260506213051 | 66 | 273 | 0.0 | 1.7 | 0.00 | 0.00 | 0.00 | 72 | 1023.4 |
| 20260506211554 | 65 | 297 | 0.0 | 0.9 | 0.00 | 0.00 | 0.00 | 74 | 1023.7 |
| 20260506210047 | 64 | 235 | 0.0 | 2.6 | 0.00 | 0.00 | 0.00 | 75 | 1023.9 |
| 20260506204545 | 64 | 240 | 0.0 | 0.9 | 0.00 | 0.00 | 0.00 | 74 | 1023.8 |
| 20260506203042 | 64 | 229 | 0.0 | 1.7 | 0.00 | 0.00 | 0.00 | 77 | 1023.8 |
| 20260506201538 | 62 | 250 | 0.0 | 0.9 | 0.00 | 0.00 | 0.00 | 79 | 1023.7 |
| 20260506200037 | 60 | 315 | 0.0 | 1.7 | 0.00 | 0.00 | 0.00 | 82 | 1023.9 |
| 20260506194543 | 60 | 30 | 0.9 | 3.5 | 0.00 | 0.00 | 0.00 | 81 | 1024.1 |
| 20260506193038 | 61 | 22 | 0.0 | 2.6 | 0.00 | 0.00 | 0.00 | 79 | 1024.3 |
| 20260506191534 | 62 | 280 | 0.0 | 0.9 | 0.00 | 0.00 | 0.00 | 76 | 1024.1 |
| 20260506190033 | 62 | 253 | 0.0 | 0.9 | 0.00 | 0.00 | 0.00 | 80 | 1024.1 |
| 20260506184531 | 61 | 260 | 0.0 | 0.9 | 0.00 | 0.00 | 0.00 | 81 | 1024.0 |
| 20260506183027 | 60 | 247 | 0.0 | 0.9 | 0.00 | 0.00 | 0.00 | 85 | 1023.9 |
| 20260506181522 | 59 | 215 | 0.0 | 1.7 | 0.00 | 0.00 | 0.00 | 85 | 1024.0 |
| 20260506180021 | 58 | 281 | 0.0 | 0.0 | 0.00 | 0.00 | 0.00 | 86 | 1024.0 |
| 20260506174520 | 58 | 282 | 0.0 | 0.0 | 0.00 | 0.00 | 0.00 | 85 | 1024.1 |
| 20260506173022 | 58 | 242 | 0.0 | 0.0 | 0.00 | 0.00 | 0.00 | 87 | 1023.9 |
| 20260506171524 | 57 | 239 | 0.0 | 0.0 | 0.00 | 0.00 | 0.00 | 87 | 1023.7 |
| 20260506170017 | 57 | 239 | 0.0 | 0.9 | 0.00 | 0.00 | 0.00 | 87 | 1023.7 |
| 20260506164518 | 57 | 238 | 0.0 | 0.9 | 0.00 | 0.00 | 0.00 | 87 | 1023.8 |
| 20260506163017 | 57 | 341 | 0.0 | 0.0 | 0.00 | 0.00 | 0.00 | 89 | 1023.7 |
| 20260506161515 | 56 | 341 | 0.0 | 0.9 | 0.00 | 0.00 | 0.00 | 89 | 1023.6 |
| 20260506160024 | 55 | 273 | 0.0 | 1.7 | 0.00 | 0.00 | 0.00 | 90 | 1023.6 |
| 20260506154517 | 55 | 9 | 0.0 | 2.6 | 0.00 | 0.00 | 0.00 | 91 | 1023.3 |
| 20260506153013 | 54 | 17 | 0.0 | 1.7 | 0.00 | 0.00 | 0.00 | 91 | 1023.1 |
| 20260506151515 | 53 | 39 | 0.9 | 3.5 | 0.00 | 0.00 | 0.00 | 90 | 1023.7 |
| 20260506150011 | 54 | 47 | 0.0 | 1.7 | 0.00 | 0.00 | 0.00 | 91 | 1023.7 |
| 20260506144509 | 54 | 35 | 0.0 | 2.6 | 0.00 | 0.00 | 0.00 | 91 | 1023.5 |
| 20260506143008 | 54 | 319 | 0.9 | 4.3 | 0.00 | 0.00 | 0.00 | 91 | 1023.4 |
| 20260506141504 | 54 | 34 | 0.0 | 2.6 | 0.00 | 0.00 | 0.00 | 91 | 1022.9 |
| 20260506140004 | 54 | 39 | 0.0 | 2.6 | 0.00 | 0.00 | 0.00 | 91 | 1022.8 |
| 20260506134502 | 54 | 34 | 0.0 | 2.6 | 0.00 | 0.00 | 0.00 | 91 | 1022.7 |
| 20260506133115 | 54 | 32 | 0.0 | 2.6 | 0.00 | 0.00 | 0.00 | 90 | 1022.6 |
| 20260506131604 | 54 | 33 | 0.9 | 2.6 | 0.00 | 0.00 | 0.00 | 90 | 1022.6 |
| 20260506130058 | 54 | 129 | 0.0 | 0.9 | 0.00 | 0.00 | 0.00 | 90 | 1022.2 |
| 20260506124600 | 54 | 144 | 0.0 | 0.0 | 0.00 | 0.00 | 0.00 | 90 | 1022.2 |
| 20260506123057 | 54 | 144 | 0.0 | 0.9 | 0.00 | 0.00 | 0.00 | 90 | 1022.1 |
| 20260506121555 | 54 | 143 | 0.0 | 0.0 | 0.00 | 0.00 | 0.00 | 90 | 1022.2 |
| 20260506120054 | 54 | 26 | 0.0 | 1.7 | 0.00 | 0.00 | 0.00 | 89 | 1022.1 |
| 20260506114553 | 54 | 51 | 0.0 | 1.7 | 0.00 | 0.00 | 0.00 | 89 | 1022.0 |
| 20260506113050 | 55 | 5 | 0.0 | 0.9 | 0.00 | 0.00 | 0.00 | 89 | 1021.8 |
| 20260506111548 | 55 | 11 | 0.0 | 0.9 | 0.00 | 0.00 | 0.00 | 89 | 1021.8 |
| 20260506110046 | 55 | 72 | 0.9 | 3.5 | 0.00 | 0.00 | 0.00 | 89 | 1021.5 |